Location: Izdebno
(52.6670°N, 16.2170°E)
Time: 18:18:52
(UTC+02:00)

Transit 4A - Pass Details

Date: 02 March 2024
Orbit: 871 x 972 km, 66.8° (Epoch: 21 April)

Event Time Altitude Azimuth Distance (km) Brightness Sun altitude
Rises 04:05:33 0° 292° (WNW) 3,553 - -23.7°
Reaches altitude 10° 04:08:47 10° 308° (NW) 2,592 - -23.3°
Exits shadow 04:10:02 14° 318° (NW) 2,289 9.7 -23.1°
Maximum altitude 04:13:12 21° 356° (N) 1,911 9.7 -22.6°
Drops below altitude 10° 04:17:35 10° 44° (NE) 2,551 11.1 -22.0°
Sets 04:20:43 0° 61° (ENE) 3,479 12.3 -21.5°
